Time,TemperatureF,DewpointF,PressureIn,WindDirection,WindDirectionDegrees,WindSpeedMPH,WindSpeedGustMPH,Humidity,HourlyPrecipIn,Conditions,Clouds,dailyrainin,SoftwareType,DateUTC
2013-06-15 00:14:00,48.0,42.1,29.90,NNE,22,0.0,-999.0,80,-99.99,,,0.00,Acu-Link.com,2013-06-15 04:14:00,
2013-06-15 00:30:00,48.2,41.7,29.90,NNE,22,0.0,-999.0,78,-99.99,,,0.00,Acu-Link.com,2013-06-15 04:30:00,
2013-06-15 00:45:00,48.4,41.2,29.91,NNE,22,0.0,-999.0,76,-99.99,,,0.00,Acu-Link.com,2013-06-15 04:45:00,
2013-06-15 01:00:00,48.6,42.1,29.89,NNE,22,0.0,-999.0,78,-99.99,,,0.00,Acu-Link.com,2013-06-15 05:00:00,
2013-06-15 01:15:00,48.4,41.9,29.89,NNE,22,0.0,-999.0,78,-99.99,,,0.00,Acu-Link.com,2013-06-15 05:15:00,
2013-06-15 01:31:00,49.1,41.9,29.88,NNE,22,0.0,-999.0,76,-99.99,,,0.00,Acu-Link.com,2013-06-15 05:31:00,
2013-06-15 01:46:00,48.6,42.4,29.87,NNE,22,0.0,-999.0,79,-99.99,,,0.00,Acu-Link.com,2013-06-15 05:46:00,
2013-06-15 02:01:00,49.3,43.1,29.87,NNE,22,2.2,-999.0,79,-99.99,,,0.00,Acu-Link.com,2013-06-15 06:01:00,
2013-06-15 02:16:00,52.7,42.8,29.87,NNE,22,3.2,-999.0,69,-99.99,,,0.00,Acu-Link.com,2013-06-15 06:16:00,
2013-06-15 02:32:00,55.4,43.0,29.87,SSW,202,4.2,-999.0,63,-99.99,,,0.00,Acu-Link.com,2013-06-15 06:32:00,
2013-06-15 02:47:00,57.0,43.3,29.87,SSW,202,4.2,-999.0,60,-99.99,,,0.00,Acu-Link.com,2013-06-15 06:47:00,
2013-06-15 03:02:00,57.6,43.8,29.86,South,180,4.7,-999.0,60,-99.99,,,0.00,Acu-Link.com,2013-06-15 07:02:00,
2013-06-15 03:17:00,57.4,44.1,29.86,SW,225,2.7,-999.0,61,-99.99,,,0.00,Acu-Link.com,2013-06-15 07:17:00,
2013-06-15 03:32:00,58.3,45.3,29.86,SSW,202,4.2,-999.0,62,-99.99,,,0.00,Acu-Link.com,2013-06-15 07:32:00,
2013-06-15 03:47:00,58.6,45.2,29.86,SSW,202,5.3,-999.0,61,-99.99,,,0.00,Acu-Link.com,2013-06-15 07:47:00,
2013-06-15 04:02:00,58.5,45.5,29.86,West,270,5.8,-999.0,62,-99.99,,,0.00,Acu-Link.com,2013-06-15 08:02:00,
2013-06-15 04:18:00,58.5,45.5,29.86,SW,225,7.8,-999.0,62,-99.99,,,0.00,Acu-Link.com,2013-06-15 08:18:00,
2013-06-15 04:33:00,57.9,45.4,29.85,SSW,202,4.7,-999.0,63,-99.99,,,0.00,Acu-Link.com,2013-06-15 08:33:00,
2013-06-15 04:48:00,57.0,45.4,29.84,SSW,202,5.3,-999.0,65,-99.99,,,0.00,Acu-Link.com,2013-06-15 08:48:00,
2013-06-15 05:03:00,56.5,45.3,29.84,SW,225,4.2,-999.0,66,-99.99,,,0.00,Acu-Link.com,2013-06-15 09:03:00,
2013-06-15 05:18:00,56.3,45.1,29.84,SW,225,4.7,-999.0,66,-99.99,,,0.00,Acu-Link.com,2013-06-15 09:18:00,
2013-06-15 05:33:00,56.5,45.7,29.84,SW,225,3.7,-999.0,67,-99.99,,,0.00,Acu-Link.com,2013-06-15 09:33:00,
2013-06-15 05:48:00,57.0,46.2,29.85,SSW,202,3.7,-999.0,67,-99.99,,,0.00,Acu-Link.com,2013-06-15 09:48:00,
2013-06-15 06:03:00,57.9,46.6,29.85,SW,225,4.2,-999.0,66,-99.99,,,0.00,Acu-Link.com,2013-06-15 10:03:00,
2013-06-15 06:19:00,58.3,47.0,29.85,SW,225,4.7,-999.0,66,-99.99,,,0.00,Acu-Link.com,2013-06-15 10:19:00,
2013-06-15 06:34:00,58.8,47.1,29.85,SW,225,4.7,-999.0,65,-99.99,,,0.00,Acu-Link.com,2013-06-15 10:34:00,
2013-06-15 06:49:00,59.0,47.7,29.85,South,180,2.7,-999.0,66,-99.99,,,0.00,Acu-Link.com,2013-06-15 10:49:00,
2013-06-15 07:04:00,59.7,47.9,29.85,SSW,202,3.2,-999.0,65,-99.99,,,0.00,Acu-Link.com,2013-06-15 11:04:00,
2013-06-15 07:20:00,60.3,48.5,29.85,SSW,202,2.7,-999.0,65,-99.99,,,0.00,Acu-Link.com,2013-06-15 11:20:00,
2013-06-15 07:35:00,60.3,48.9,29.85,South,180,4.2,-999.0,66,-99.99,,,0.00,Acu-Link.com,2013-06-15 11:35:00,
2013-06-15 07:50:00,60.8,49.8,29.85,SSE,157,3.7,-999.0,67,-99.99,,,0.00,Acu-Link.com,2013-06-15 11:50:00,
2013-06-15 08:05:00,61.3,50.6,29.84,SSE,157,2.7,-999.0,68,-99.99,,,0.00,Acu-Link.com,2013-06-15 12:05:00,
2013-06-15 08:20:00,61.3,50.6,29.84,SSE,157,2.2,-999.0,68,-99.99,,,0.00,Acu-Link.com,2013-06-15 12:20:00,
2013-06-15 08:36:00,60.1,51.8,29.84,SSE,157,2.7,-999.0,74,-99.99,,,0.00,Acu-Link.com,2013-06-15 12:36:00,
2013-06-15 08:51:00,57.6,52.1,29.82,SSE,157,3.7,-999.0,82,-99.99,,,0.01,Acu-Link.com,2013-06-15 12:51:00,
2013-06-15 09:06:00,57.6,52.8,29.84,SSW,202,1.7,-999.0,84,-99.99,,,0.01,Acu-Link.com,2013-06-15 13:06:00,
2013-06-15 09:22:00,57.7,52.6,29.82,SSW,202,3.2,-999.0,83,-99.99,,,0.01,Acu-Link.com,2013-06-15 13:22:00,
2013-06-15 09:37:00,57.2,52.4,29.81,SSW,202,3.7,-999.0,84,-99.99,,,0.01,Acu-Link.com,2013-06-15 13:37:00,
2013-06-15 09:52:00,58.5,53.0,29.83,West,270,4.2,-999.0,82,-99.99,,,0.02,Acu-Link.com,2013-06-15 13:52:00,
2013-06-15 10:07:00,56.8,51.7,29.84,NW,315,8.9,-999.0,83,-99.99,,,0.02,Acu-Link.com,2013-06-15 14:07:00,
2013-06-15 10:22:00,56.3,50.5,29.84,NW,315,4.7,-999.0,81,-99.99,,,0.02,Acu-Link.com,2013-06-15 14:22:00,
2013-06-15 10:37:00,56.1,50.0,29.84,NW,315,4.7,-999.0,80,-99.99,,,0.02,Acu-Link.com,2013-06-15 14:37:00,
2013-06-15 10:53:00,54.9,49.5,29.84,NW,315,1.7,-999.0,82,-99.99,,,0.02,Acu-Link.com,2013-06-15 14:53:00,
2013-06-15 11:08:00,56.5,50.4,29.83,NNE,22,2.7,-999.0,80,-99.99,,,0.02,Acu-Link.com,2013-06-15 15:08:00,
2013-06-15 11:23:00,55.0,48.9,29.82,NE,45,3.2,-999.0,80,-99.99,,,0.02,Acu-Link.com,2013-06-15 15:23:00,
2013-06-15 11:38:00,55.0,48.9,29.80,East,90,4.2,-999.0,80,-99.99,,,0.02,Acu-Link.com,2013-06-15 15:38:00,
2013-06-15 11:53:00,55.2,48.5,29.81,East,90,4.2,-999.0,78,-99.99,,,0.02,Acu-Link.com,2013-06-15 15:53:00,
2013-06-15 12:08:00,59.0,52.1,29.81,East,90,0.0,-999.0,78,-99.99,,,0.02,Acu-Link.com,2013-06-15 16:08:00,
2013-06-15 12:23:00,53.6,48.2,29.80,NW,315,2.2,-999.0,82,-99.99,,,0.02,Acu-Link.com,2013-06-15 16:23:00,
2013-06-15 12:48:00,67.5,57.4,29.80,East,90,3.2,-999.0,70,-99.99,,,0.02,Acu-Link.com,2013-06-15 16:48:00,
2013-06-15 13:03:00,67.5,57.8,29.80,SW,225,1.7,-999.0,71,-99.99,,,0.02,Acu-Link.com,2013-06-15 17:03:00,
2013-06-15 13:18:00,70.0,59.4,29.78,SW,225,1.7,-999.0,69,-99.99,,,0.02,Acu-Link.com,2013-06-15 17:18:00,
2013-06-15 13:33:00,72.5,60.9,29.77,ESE,112,3.7,-999.0,67,-99.99,,,0.02,Acu-Link.com,2013-06-15 17:33:00,
2013-06-15 13:49:00,66.7,57.0,29.77,ENE,67,2.2,-999.0,71,-99.99,,,0.02,Acu-Link.com,2013-06-15 17:49:00,
2013-06-15 14:04:00,72.7,60.2,29.76,SW,225,8.3,-999.0,65,-99.99,,,0.02,Acu-Link.com,2013-06-15 18:04:00,
2013-06-15 14:19:00,73.8,60.0,29.76,South,180,6.8,-999.0,62,-99.99,,,0.02,Acu-Link.com,2013-06-15 18:19:00,
2013-06-15 14:34:00,73.8,61.3,29.75,South,180,3.7,-999.0,65,-99.99,,,0.02,Acu-Link.com,2013-06-15 18:34:00,
2013-06-15 14:49:00,73.9,61.4,29.75,SSE,157,4.7,-999.0,65,-99.99,,,0.02,Acu-Link.com,2013-06-15 18:49:00,
2013-06-15 15:04:00,76.1,62.1,29.73,East,90,1.7,-999.0,62,-99.99,,,0.02,Acu-Link.com,2013-06-15 19:04:00,
2013-06-15 15:20:00,77.9,63.3,29.73,SSW,202,6.8,-999.0,61,-99.99,,,0.02,Acu-Link.com,2013-06-15 19:20:00,
2013-06-15 15:35:00,78.4,63.3,29.73,SSW,202,2.7,-999.0,60,-99.99,,,0.02,Acu-Link.com,2013-06-15 19:35:00,
2013-06-15 15:50:00,75.9,61.9,29.74,SSW,202,3.7,-999.0,62,-99.99,,,0.02,Acu-Link.com,2013-06-15 19:50:00,
2013-06-15 16:06:00,76.1,62.6,29.73,SSW,202,3.7,-999.0,63,-99.99,,,0.02,Acu-Link.com,2013-06-15 20:06:00,
2013-06-15 16:21:00,75.9,62.8,29.72,South,180,3.2,-999.0,64,-99.99,,,0.02,Acu-Link.com,2013-06-15 20:21:00,
2013-06-15 16:36:00,76.6,63.5,29.72,NW,315,2.2,-999.0,64,-99.99,,,0.02,Acu-Link.com,2013-06-15 20:36:00,
2013-06-15 16:52:00,76.5,63.4,29.71,WSW,247,2.2,-999.0,64,-99.99,,,0.02,Acu-Link.com,2013-06-15 20:52:00,
2013-06-15 17:07:00,75.7,63.1,29.71,West,270,1.1,-999.0,65,-99.99,,,0.02,Acu-Link.com,2013-06-15 21:07:00,
2013-06-15 17:22:00,74.1,62.4,29.71,West,270,3.2,-999.0,67,-99.99,,,0.02,Acu-Link.com,2013-06-15 21:22:00,
2013-06-15 17:38:00,73.9,62.7,29.71,SSW,202,1.7,-999.0,68,-99.99,,,0.02,Acu-Link.com,2013-06-15 21:38:00,
2013-06-15 17:53:00,73.4,62.2,29.70,West,270,2.7,-999.0,68,-99.99,,,0.02,Acu-Link.com,2013-06-15 21:53:00,
2013-06-15 18:08:00,72.5,61.7,29.70,West,270,2.7,-999.0,69,-99.99,,,0.02,Acu-Link.com,2013-06-15 22:08:00,
2013-06-15 18:23:00,72.3,62.0,29.70,West,270,2.2,-999.0,70,-99.99,,,0.02,Acu-Link.com,2013-06-15 22:23:00,
2013-06-15 18:39:00,71.4,61.9,29.70,West,270,0.0,-999.0,72,-99.99,,,0.02,Acu-Link.com,2013-06-15 22:39:00,
2013-06-15 18:54:00,71.4,61.9,29.70,West,270,0.0,-999.0,72,-99.99,,,0.02,Acu-Link.com,2013-06-15 22:54:00,
2013-06-15 19:09:00,62.2,54.5,29.71,NW,315,2.7,-999.0,76,-99.99,,,0.02,Acu-Link.com,2013-06-15 23:09:00,
2013-06-15 19:24:00,59.5,52.6,29.71,NW,315,5.3,-999.0,78,-99.99,,,0.02,Acu-Link.com,2013-06-15 23:24:00,
2013-06-15 19:40:00,58.5,52.7,29.71,NNE,22,4.2,-999.0,81,-99.99,,,0.02,Acu-Link.com,2013-06-15 23:40:00,
2013-06-15 19:55:00,54.5,49.4,29.72,NNW,337,7.8,-999.0,83,-99.99,,,0.02,Acu-Link.com,2013-06-15 23:55:00,
2013-06-15 20:10:00,54.3,49.6,29.71,NNW,337,4.2,-999.0,84,-99.99,,,0.02,Acu-Link.com,2013-06-16 00:10:00,
2013-06-15 20:25:00,54.1,50.0,29.71,NW,315,5.3,-999.0,86,-99.99,,,0.02,Acu-Link.com,2013-06-16 00:25:00,
2013-06-15 20:40:00,54.3,49.6,29.70,NW,315,3.2,-999.0,84,-99.99,,,0.02,Acu-Link.com,2013-06-16 00:40:00,
2013-06-15 20:56:00,53.4,49.0,29.70,ENE,67,4.2,-999.0,85,-99.99,,,0.02,Acu-Link.com,2013-06-16 00:56:00,
2013-06-15 21:11:00,52.7,48.9,29.70,East,90,3.2,-999.0,87,-99.99,,,0.02,Acu-Link.com,2013-06-16 01:11:00,
2013-06-15 21:26:00,51.1,47.7,29.71,North,0,4.2,-999.0,88,-99.99,,,0.02,Acu-Link.com,2013-06-16 01:26:00,
2013-06-15 21:41:00,50.0,46.6,29.69,NNE,22,3.2,-999.0,88,-99.99,,,0.02,Acu-Link.com,2013-06-16 01:41:00,
2013-06-15 21:56:00,50.9,47.5,29.68,NNE,22,2.2,-999.0,88,-99.99,,,0.02,Acu-Link.com,2013-06-16 01:56:00,
2013-06-15 22:12:00,52.2,48.8,29.69,NNE,22,1.7,-999.0,88,-99.99,,,0.02,Acu-Link.com,2013-06-16 02:12:00,
2013-06-15 22:27:00,52.9,49.4,29.68,NNE,22,1.7,-999.0,88,-99.99,,,0.02,Acu-Link.com,2013-06-16 02:27:00,
2013-06-15 22:42:00,54.3,50.8,29.69,SSW,202,2.7,-999.0,88,-99.99,,,0.02,Acu-Link.com,2013-06-16 02:42:00,
2013-06-15 22:58:00,55.2,51.4,29.67,South,180,2.7,-999.0,87,-99.99,,,0.02,Acu-Link.com,2013-06-16 02:58:00,
2013-06-15 23:13:00,56.3,52.2,29.67,South,180,2.7,-999.0,86,-99.99,,,0.02,Acu-Link.com,2013-06-16 03:13:00,
2013-06-15 23:28:00,56.8,53.0,29.66,South,180,2.7,-999.0,87,-99.99,,,0.02,Acu-Link.com,2013-06-16 03:28:00,
2013-06-15 23:43:00,58.5,54.6,29.65,South,180,3.2,-999.0,87,-99.99,,,0.02,Acu-Link.com,2013-06-16 03:43:00,
2013-06-15 23:59:00,58.6,55.4,29.65,South,180,0.0,-999.0,89,-99.99,,,0.02,Acu-Link.com,2013-06-16 03:59:00,